軌道要素
Epoch 2021 Mar. 7.0 TT = JDT 2459280.5
T 2021 Mar. 20.03314 TT Rudenko
q 1.1455002 (2000.0) P Q
z +0.0232314 Peri. 204.66152 -0.42560733 +0.51814429
+/-0.0000185 Node 307.08408 +0.90438244 +0.21562206
e 0.9733885 Incl. 111.57097 -0.03083509 -0.82766758
From 709 observations 2021 Jan. 3-July 7, mean residual 1".1.
|